Regional Weather Roundup
Issued by NWS

Home | Current Version | Previous Version | Graphics & Text | Print | Product List | Glossary On
Versions: 1 2 3 4 5 6 7 8 9 10 11 12 13 14 15 16 17 18 19 20 21 22 23 24 25 26 27 28 29 30 31 32 33 34 35 36 37 38 39 40 41 42 43 44 45 46 47 48 49 50
000
ASUS45 KCYS 281810
RWRWY

WYOMING REGIONAL WEATHER ROUNDUP
NATIONAL WEATHER SERVICE CHEYENNE WY
1100 AM MST SAT FEB 28 2015

NOTE:  "FAIR" INDICATES FEW OR NO CLOUDS BELOW 12,000 FEET
WITH NO SIGNIFICANT WEATHER AND/OR OBSTRUCTIONS TO VISIBILITY.

WYZ001-281900-
YELLOWSTONE NATIONAL PARK

CITY           SKY/WX    TMP DP  RH WIND       PRES   REMARKS
LK YELLOWSTONE   N/A     11   0  61 CALM      29.82S
6HR MIN TEMP: -15; 6HR MAX TEMP:  11;

W YELLOWSTONE  NOT AVBL

$$
WYZ002>013-054>058-071-098>099-281900-
NORTHERN WYOMING

CITY           SKY/WX    TMP DP  RH WIND       PRES   REMARKS
JACKSON        NOT AVBL
CODY           CLOUDY    16  10  79 NE7       30.01S WCI   6
GREYBULL       CLOUDY    22   8  55 CALM      30.07S
6HR MIN TEMP:  14; 6HR MAX TEMP:  23;

WORLAND        CLOUDY    22  10  60 VRB5      30.05S WCI  16
6HR MIN TEMP:  14; 6HR MAX TEMP:  23;

SHERIDAN       LGT SNOW  17   8  67 NW6       30.11S WCI   9
6HR MIN TEMP:  15; 6HR MAX TEMP:  17; 6HR PCP: TRACE;

BUFFALO        CLOUDY    13   7  77 N3        30.05R
6HR MIN TEMP:   1; 6HR MAX TEMP:  14;

GILLETTE       CLOUDY    16   7  67 NW12      30.07S WCI   3
6HR MIN TEMP:   5; 6HR MAX TEMP:  16;

HULETT         CLOUDY    16   5  62 NW9       30.08S WCI   4
NEWCASTLE      FAIR      21   5  49 NW15G23   30.06S WCI   8

$$
WYZ014>020-022>026-101>103-281900-
CENTRAL WYOMING

CITY           SKY/WX    TMP DP  RH WIND       PRES   REMARKS
BIG PINEY      CLOUDY    20  12  71 VRB6      29.82S WCI  12
6HR MIN TEMP:  14; 6HR MAX TEMP:  21; 6HR PCP: TRACE;

PINEDALE       CLOUDY    21  14  73 CALM      29.82S
DUBOIS         MOCLDY    18   9  68 SE10      29.85S WCI   6
LANDER         LGT SNOW  17  12  80 CALM      29.96R
6HR MIN TEMP:  14; 6HR MAX TEMP:  18; 6HR PCP: TRACE;

RIVERTON       CLOUDY    17   9  70 E13       29.97S WCI   4
6HR MIN TEMP:  13; 6HR MAX TEMP:  17; 6HR PCP: TRACE;

CASPER         CLOUDY    16   6  65 E9        29.99F WCI   4
6HR MIN TEMP:  11; 6HR MAX TEMP:  18; 6HR PCP: TRACE;

DOUGLAS        CLOUDY    17   7  64 E6        30.04F WCI   9
6HR MIN TEMP:  11; 6HR MAX TEMP:  18; 6HR PCP: TRACE;


$$
WYZ021-027>030-104>119-281900-
SOUTHERN WYOMING

CITY           SKY/WX    TMP DP  RH WIND       PRES   REMARKS
EVANSTON       FAIR      23  16  74 E16       29.74R WCI  10
6HR MIN TEMP:  15; 6HR MAX TEMP:  23;

FORT BRIDGER   MOCLDY    22  18  83 NE8       29.79F WCI  13
ROCK SPRINGS   CLOUDY    20  11  68 E16       29.81F WCI   6
6HR MIN TEMP:   9; 6HR MAX TEMP:  20; 6HR PCP: TRACE;

DIXON          FAIR      33  15  47 SW5       29.81S WCI  29
RAWLINS        CLOUDY    22   5  48 E14       29.84S WCI   9
6HR MIN TEMP:   6; 6HR MAX TEMP:  23;

SARATOGA       CLOUDY    21  10  63 NW3       29.82S
LARAMIE        FAIR      18   6  59 SW5       29.82S WCI  11
6HR MIN TEMP:  -3; 6HR MAX TEMP:  18;

CHEYENNE       PTSUNNY   17   9  70 N14       29.92F WCI   3
6HR MIN TEMP:   3; 6HR MAX TEMP:  18;

TORRINGTON     FAIR      26  10  50 N9        30.04F WCI  17
6HR MIN TEMP:   6; 6HR MAX TEMP:  26;

PINE BLUFFS    FAIR      21  14  73 NE13      29.98F WCI   9

$$


USA.gov is the U.S. government's official web portal to all federal, state and local government web resources and services.